Location: Alexander Elementary School
(32.6240°N, 96.9214°W)
Time: 05:02:57
(UTC+00:00)

Daily predictions for brighter satellites

Satellite Brightness Start Highest point End
(mag) Time Altitude Azimuth Time Altitude Azimuth Time Altitude Azimuth
NOSS 2-3 (D) 3.1 00:00:16 10° SSW 00:04:12 90° SE 00:07:52 10° NNE
Sakura Rocket 4.4 00:00:19 10° SW 00:04:12 28° SSE 00:07:31 10° ESE
COSMO-SKYMED 1 3.5 00:05:15 10° NE 00:08:44 26° E 00:12:11 10° SSE
Cosmos 2263 Rocket 3.7 00:05:54 10° NNE 00:08:50 14° NE 00:10:29 13° ENE
Thor Agena Rocket 4.0 00:05:26 10° S 00:10:38 68° WSW 00:15:49 10° NNW
Cosmos 1726 Rocket 3.6 00:15:20 10° S 00:19:56 74° E 00:24:34 10° N
Cosmos 2227 Rocket 2.8 00:17:26 10° N 00:22:29 33° ENE 00:27:32 10° SE
SAR-Lupe-4 3.7 00:19:11 10° S 00:22:43 78° WSW 00:26:17 10° NNW
Okean 1-7 Rocket 3.4 00:18:43 10° N 00:23:06 80° E 00:27:26 10° S
IRS-1C 4.2 00:20:04 10° SSE 00:25:22 83° WSW 00:30:43 10° NNW
ATLAS 5 CENTAUR R/B 4.2 00:21:23 10° SSW 00:27:03 85° ESE 00:51:23 10° NE
USA 290 2.6 00:25:12 10° NNW 00:28:26 67° WSW 00:31:38 10° S
Cosmos 1697 Rocket 3.6 00:24:39 10° SW 00:30:02 48° WNW 00:35:26 10° N
CZ-2D R/B 3.6 00:28:05 10° S 00:31:07 52° W 00:34:12 10° NNW
SAR-Lupe-1 4.4 00:28:30 10° S 00:32:03 68° WSW 00:35:39 10° NNW
Spot 4 Rocket 4.5 00:27:37 10° SE 00:32:13 36° ENE 00:36:51 10° N
ATLAS CENTAUR R/B 1.2 00:30:00 10° NW 00:33:06 59° WSW 00:36:05 10° SSE
YAOGAN 1 3.2 00:29:48 10° SE 00:33:35 32° ENE 00:37:22 10° N
SKYMED 2 3.5 00:30:26 10° N 00:34:47 87° WNW 00:39:07 10° SSW
Cosmos 724 4.2 00:29:47 10° NNW 00:35:46 80° ENE 00:41:35 10° SSE
H-II Stage 2 3.7 00:26:55 10° W 00:38:12 45° SSW 00:41:02 13° SE
Meteor 2-20 4.4 00:32:39 10° S 00:38:47 81° E 00:44:58 10° N
Cosmos 1898 Rocket 3.6 00:35:51 10° S 00:40:50 54° ESE 00:44:15 20° NNE
OAO 1 4.5 00:39:16 10° W 00:44:47 83° NNW 00:47:33 30° ENE
Cosmos-2242 2.9 00:43:56 10° S 00:48:05 62° E 00:50:38 23° NNE
Cosmos 1953 Rocket 3.4 00:51:49 10° N 00:56:16 75° E 01:00:41 10° S
Meteor 2-10 4.2 00:51:03 10° N 00:56:19 51° E 01:01:44 10° SSE
BREEZE-M DEB (TANK) 4.4 00:56:16 10° W 00:59:56 21° NW 01:00:59 18° NNW
Helios 1A Rocket 2.4 00:59:45 45° N 01:00:40 77° WNW 01:04:02 10° SSW
Meteor 2-20 Rocket 4.4 00:54:30 10° S 01:00:52 86° E 01:07:01 10° N
Cosmos 372 Rocket 4.1 00:56:53 10° SSW 01:02:02 72° WNW 01:06:00 17° N
Cosmos 2237 4.5 00:56:52 10° S 01:02:15 45° ESE 01:03:16 41° ENE
Cosmos 1937 Rocket 3.4 00:57:20 10° S 01:02:28 63° ESE 01:04:15 39° NE
Meteor 1-26 Rocket 4.0 00:57:39 10° S 01:03:06 84° E 01:07:43 15° N
Cosmos 1655 Rocket 4.1 00:58:57 10° N 01:05:10 79° W 01:11:22 10° S
Aureole 1 Rocket 3.7 01:01:39 10° SSW 01:05:25 52° WNW 01:09:04 16° N
Cosmos 1867 3.4 01:00:21 10° NNW 01:05:49 78° ENE 01:11:13 10° SSE
Cosmos 967 Rocket 4.4 01:06:00 10° SSW 01:12:16 75° ESE 01:14:48 39° NE
SL-16 R/B 3.5 01:07:41 10° SSE 01:10:22 23° SE 01:10:22 23° SE
Cosmos 2297 Rocket 4.1 01:10:15 10° NW 01:15:08 31° WSW 01:20:00 10° SSW
OceanSat 1 rocket 4.4 01:12:02 10° SSE 01:16:48 77° ENE 01:21:32 10° N
Cosmos 2058 Rocket 3.9 01:12:56 10° SSW 01:17:15 50° W 01:20:44 15° N
NOAA 6 3.8 01:12:32 10° SSE 01:17:36 70° ENE 01:22:40 10° N
USA 81 4.3 01:19:13 10° N 01:24:25 66° W 01:29:37 10° S
BREEZE-M DEB (TANK) 4.3 01:20:17 10° S 01:24:47 38° ESE 01:24:47 38° ESE
BlueWalker 3 4.0 01:23:31 10° WNW 01:26:31 25° SW 01:28:00 19° SSW
Hubble Space Telescope 2.2 01:26:59 10° WSW 01:29:22 30° SSW 01:29:22 30° SSW
PSLV R/B 4.1 01:28:45 10° S 01:32:38 51° W 01:33:07 48° WNW
Cosmos 1980 Rocket 3.7 01:27:48 10° SW 01:32:48 32° WNW 01:36:57 14° N
Cosmos 2084 Rocket 4.5 01:31:49 10° NW 01:35:49 43° WSW 01:36:16 41° SW
CZ-4C R/B 3.7 01:33:06 10° NW 01:40:50 60° WSW 01:49:46 10° SSE
Cosmos 2369 4.4 01:36:04 10° SW 01:41:36 51° WNW 01:43:36 35° NNW
BREEZE M DEB (TANK) 4.2 01:41:15 10° NW 01:43:48 26° WNW 01:43:48 26° WNW
Cosmos 2263 Rocket 2.5 01:47:35 10° NNW 01:52:20 59° NW 01:52:20 59° NW
COSMOS 2455 3.0 01:50:51 10° SSW 01:56:21 69° WSW 01:56:21 69° WSW
Cosmos 2333 Rocket 4.2 02:00:01 10° S 02:01:21 18° S 02:01:21 18° S
Cosmos 2227 Rocket 4.1 02:01:39 10° NW 02:06:18 27° WSW 02:10:56 10° SSW
Centaur D-1A AC-31 4.3 02:36:10 10° WNW 03:23:59 41° SW 03:24:39 41° SW
CZ-3 R/B 4.0 08:33:50 10° W 09:25:34 75° SSW 09:37:24 10° ESE
CZ-3 Stage 3 3.7 10:07:38 81° S 10:07:43 81° S 10:36:09 10° E
Cosmos 1980 Rocket 3.2 10:32:10 43° ESE 10:32:10 43° ESE 10:36:17 10° SE
Cosmos 2142 Rocket 4.4 10:56:53 45° N 10:58:58 81° E 11:05:07 10° S
COSMOS 2455 3.6 10:59:43 31° N 11:02:14 49° ENE 11:08:00 10° SE
SL-24 R/B - RUBIN 2 4.3 11:05:51 45° SSE 11:05:51 45° SSE 11:09:01 10° SSE
Cosmos 489 Rocket 4.3 11:06:45 54° SW 11:08:12 73° WNW 11:14:28 10° NNE
Nadezhda 4 Rocket 3.9 11:05:26 10° S 11:11:45 85° W 11:18:04 10° N
Cosmos 1898 Rocket 4.0 11:10:27 30° N 11:12:51 56° ENE 11:18:01 10° SSE
H-II Stage 2 4.2 11:15:28 33° S 11:15:28 33° S 11:17:50 10° SE
Cosmos 2098 Rocket 3.8 11:17:15 55° WSW 11:17:15 55° WSW 11:22:02 10° S
Cosmos 1933 3.6 11:19:08 58° SE 11:19:08 58° SE 11:22:22 10° SSE
IRS-1D 3.7 11:14:42 10° NNE 11:19:45 71° ESE 11:24:52 10° S
OAO 2 Rocket 3.7 11:23:47 42° SW 11:25:19 62° SSE 11:30:24 10° E
Cosmos 372 Rocket 3.8 11:30:24 46° NNW 11:31:52 73° WSW 11:36:54 10° S
Cosmos 546 4.5 11:33:13 77° NNE 11:33:19 79° NE 11:37:04 10° SE
Cosmos 1937 Rocket 3.8 11:29:56 18° N 11:33:44 63° ENE 11:38:48 10° SSE
Meteor 2-3 Rocket 3.6 11:32:44 10° SSW 11:38:28 72° W 11:44:10 10° N
Aureole 1 Rocket 4.4 11:35:17 22° NNW 11:40:16 61° WSW 11:47:28 10° S
COSMOS 2406 3.8 11:44:05 33° NW 11:44:05 33° NW 11:48:44 10° N
Cosmos 1606 Rocket 3.5 11:42:54 33° NNW 11:44:43 63° W 11:49:01 10° S
Cosmos 2237 4.2 11:41:41 18° NNW 11:46:04 88° ENE 11:51:45 10° SSE
OAO 3 Copernicus 4.2 11:45:52 39° W 11:47:44 76° N 11:52:45 10° ENE
CZ-4 R/B 3.6 11:43:13 10° N 11:47:48 66° WNW 11:52:21 10° SSW
Cosmos 405 Rocket 4.5 11:46:32 10° SSE 11:49:20 28° E 11:52:10 10° NNE
Centaur D AC-28 4.0 11:46:18 21° W 11:50:26 28° SW 11:54:28 10° SSE
ATLAS 2AS CENTAUR R/B 3.7 11:44:28 10° S 11:51:17 49° ESE 11:57:57 10° NE
Tiangong -2.0 11:51:40 55° NNW 11:52:10 67° NNE 11:55:22 10° ESE
Centaur D-1AR AC-48 4.2 11:35:23 13° WSW 11:52:15 41° SSW 11:57:09 10° ESE
Cosmos 1814 Rocket 4.2 11:47:09 10° S 11:52:18 74° ESE 11:57:33 10° NNE
